Location: Guferjoch
(46.7462°N, 8.4506°E)
Time: 22:49:06
(UTC+00:00)

Tsikada Rocket - Pass Details

Date: 14 July 2020
Orbit: 959 x 1008 km, 82.9° (Epoch: 14 August)

Event Time Altitude Azimuth Distance (km) Brightness Sun altitude
Rises 01:30:31 0° 350° (N) 3,746 7.9 -16.6°
Reaches altitude 10° 01:33:03 10° 351° (N) 2,795 7.2 -16.4°
Maximum altitude 01:39:30 87° 263° (W) 1,017 4.0 -15.8°
Enters shadow 01:45:07 14° 175° (S) 2,481 5.7 -15.3°
